Hauptseite
METAR-TAF:

METAR-TAF

Flughäfen :

Plzeň, Tschechien

Breite: 49-40-31N, Länge: 13-16-29E, Höhe: 362 m

Beobachtung

Neuester Wetterbericht von vor 1 Stunde und 1 Minuten, um 03:00 UTC
Wind 3 kt aus West, variierte zwischen West/Südwest und Nordwest
Temperatur 4°C
Luftfeuchtigkeit 93%
Luftdruck 1028 hPa
Sichtweite 10 km oder mehr
Durchbrochene Bewölkung in der Höhe von 3900 ft

METAR: LKLN 230300Z AUTO 28003KT 240V320 9999 BKN039 04/03 Q1028

Zeit: 06:01 (04:01 UTC)


TAF: fehlend

Wetterbeobachtungen und Prognosen von mehr als 4000 Flughäfen (METAR und TAF Bericht).

Die verfügbaren Stationen werden durch gelbe und rote Markierungen auf der Karte dargestellt.

Führen Sie die Maus auf sie, um den Namen der Station zu sehen.

Darauf klicken, um die Beobachtung von Wetterbeobachtungen und Prognosen zu sehen.

Um die Karte zu ändern : klicken Sie auf den grünen Tasten mit einem schwarzen Kreuz Zum Vergrößern, auf den grünen Button mit einem Gedankenstrich zu verkleinern, oder auf die grünen Pfeile für benachbarte Karten.


METAR-TAF: